This is the latest recevied weather packets stored in our database for station/object KK7RJD. If no packets are shown the sender has not sent any weather packets the latest 10 day(s).
| Time | Temp. | Humidity | Pressure | Rain* | Wind** | Luminosity | Snow |
|---|---|---|---|---|---|---|---|
| 1778001644 | 7.22° C | 43% | 1015.8 hPa | 0 mm | - | 913 W/m² | - |
| 1778001339 | 7.22° C | 40% | 1015.8 hPa | 0 mm | - | 861 W/m² | - |
| 1778001036 | 7.22° C | 39% | 1015.7 hPa | 0 mm | - | 869 W/m² | - |
| 1778000733 | 7.78° C | 40% | 1015.8 hPa | 0 mm | - | 889 W/m² | - |
| 1778000430 | 7.22° C | 40% | 1015.8 hPa | 0 mm | - | 837 W/m² | - |
| 1778000125 | 7.22° C | 40% | 1015.7 hPa | 0 mm | - | 369 W/m² | - |
| 1777999820 | 7.22° C | 39% | 1015.7 hPa | 0 mm | - | 828 W/m² | - |
| 1777999517 | 7.22° C | 42% | 1016 hPa | 0 mm | - | 777 W/m² | - |
| 1777999215 | 6.11° C | 42% | 1015.9 hPa | 0 mm | - | 768 W/m² | - |
| 1777998913 | 5.56° C | 44% | 1016 hPa | 0 mm | - | 589 W/m² | - |
| 1777998609 | 5.56° C | 42% | 1016.2 hPa | 0 mm | - | 209 W/m² | - |
| 1777998303 | 5.56° C | 41% | 1016.1 hPa | 0 mm | - | 163 W/m² | - |
| 1777998000 | 6.11° C | 40% | 1016.1 hPa | 0 mm | - | 218 W/m² | - |
| 1777997696 | 6.11° C | 40% | 1016.1 hPa | 0 mm | - | 463 W/m² | - |
| 1777997394 | 6.67° C | 39% | 1015.9 hPa | 0 mm | - | 222 W/m² | - |
| 1777997092 | 6.67° C | 41% | 1015.9 hPa | 0 mm | - | 216 W/m² | - |
| 1777996788 | 7.22° C | 38% | 1016.2 hPa | 0 mm | - | 411 W/m² | - |
| 1777996485 | 6.67° C | 40% | 1016.1 hPa | 0 mm | - | 575 W/m² | - |
| 1777996182 | 6.67° C | 42% | 1016.1 hPa | 0 mm | - | 379 W/m² | - |
| 1777995878 | 6.67° C | 43% | 1016 hPa | 0 mm | - | 690 W/m² | - |
| 1777995574 | 6.11° C | 44% | 1016 hPa | 0 mm | - | 601 W/m² | - |
| 1777995271 | 5.56° C | 45% | 1016.4 hPa | 0 mm | - | 570 W/m² | - |
| 1777994968 | 5° C | 45% | 1016.2 hPa | 0 mm | - | 534 W/m² | - |
| 1777994666 | 4.44° C | 47% | 1016.4 hPa | 0 mm | - | 169 W/m² | - |
| 1777994365 | 5° C | 46% | 1016.4 hPa | 0 mm | - | 157 W/m² | - |
* Rain latest hour (hover to see other rain measurements)
** Current wind speed in m/s (hover to see current wind gust speed)